Weather History for Edmonton, AB

Change the Weather History Date:

Sunday, May 19, 2013

  Actual Average Record
Temperature  
Mean Temperature 54 °F -  
Max Temperature 70 °F 67 °F 75 °F (2006)
Min Temperature 37 °F 42 °F 24 °F (2003)
Degree Days  
Heating Degree Days 12    
Growing Degree Days 4 (Base 50)    
Moisture  
Dew Point 41 °F    
Average Humidity 56    
Maximum Humidity 87    
Minimum Humidity 24    
Precipitation  
Precipitation 0.00 in 0.08 in - ()
Sea Level Pressure  
Sea Level Pressure 30.10 in    
Wind  
Wind Speed 9 mph ()    
Max Wind Speed 15 mph    
Max Gust Speed 22 mph    
Visibility 15.0 miles    
Events Rain    
Averages and records for this station are not official NWS values.
T = Trace of Precipitation, MM = Missing Value Source: Averaged Metar Reports

Daily Weather History Graph

Daily Weather History Graph

Search for Another Location

Airport:

Trip Planner

Search our weather history database for the weather conditions in past years. The results will help you decide how hot, cold, wet, or windy it might be!

Date:

Astronomy

May. 19, 2013 Rise Set
Actual Time 5:27 AM MDT 9:34 PM MDT
Civil Twilight 4:42 AM MDT 10:20 PM MDT
Nautical Twilight 3:36 AM MDT 11:27 PM MDT
Astronomical Twilight 2:03 AM MDT 12:58 AM MDT
Moon 2:54 PM MDT (5/19) 2:45 AM MDT (5/19)
Length of Visible Light 17h 38m
Length of Day
16h 06m
Waxing Gibbous, 66% of the Moon is Illuminated
May 19
Waxing Gibbous
May 24
Full
May 31
Last Quarter
Jun 8
New
Jun 16
First Quarter

Hourly Weather History & Observations

Time (MDT) Temp. Windchill Dew Point Humidity Pressure Visibility Wind Dir Wind Speed Gust Speed Precip Events Conditions
12:00 AM 56 °F - 42 °F 49% 29.96 in 15 mi SE 12.7 mph - -   Scattered Clouds
12:00 AM 55.4 °F - 42.8 °F 63% 29.96 in 15.0 mi SE 12.7 mph - N/A   Mostly Cloudy
1:00 AM 55.4 °F - 41.0 °F 58% 29.98 in 15.0 mi SSE 11.5 mph - N/A   Mostly Cloudy
2:00 AM 48.2 °F - 41.0 °F 76% 30.01 in 15.0 mi West 5.8 mph - N/A   Mostly Cloudy
3:00 AM 44.6 °F 41.4 °F 39.2 °F 81% 30.01 in 15.0 mi SSE 5.8 mph - N/A   Scattered Clouds
4:00 AM 42.8 °F 38.6 °F 37.4 °F 81% 30.03 in 15.0 mi SW 6.9 mph - N/A   Scattered Clouds
5:00 AM 37.4 °F 33.8 °F 33.8 °F 87% 30.06 in 15.0 mi South 4.6 mph - N/A   Mostly Cloudy
6:00 AM 39 °F - 36 °F 84% 30.08 in 15 mi WSW 4.6 mph - -   Scattered Clouds
6:00 AM 39.2 °F 34.2 °F 35.6 °F 87% 30.08 in 15.0 mi WSW 6.9 mph - N/A   Mostly Cloudy
7:00 AM 53.6 °F - 44.6 °F 72% 30.09 in 15.0 mi WNW 9.2 mph - N/A   Mostly Cloudy
7:47 AM 59.0 °F - 46.4 °F 63% 30.09 in 15.0 mi NW 13.8 mph - N/A Rain Light Rain Showers
8:00 AM 57.2 °F - 46.4 °F 67% 30.10 in 15.0 mi NW 10.4 mph 17.3 mph N/A Rain Light Rain Showers
8:31 AM 55.4 °F - 46.4 °F 72% 30.10 in 15.0 mi NW 6.9 mph - N/A   Overcast
9:00 AM 57.2 °F - 44.6 °F 63% 30.12 in 15.0 mi WNW 11.5 mph - N/A   Overcast
10:00 AM 57.2 °F - 44.6 °F 63% 30.14 in 15.0 mi WNW 13.8 mph - N/A   Mostly Cloudy
11:00 AM 60.8 °F - 42.8 °F 52% 30.15 in 15.0 mi NW 12.7 mph - N/A   Mostly Cloudy
12:00 PM 62 °F - 43 °F 39% 30.15 in 15 mi NW 12.7 mph - -   Scattered Clouds
12:00 PM 62.6 °F - 42.8 °F 48% 30.15 in 15.0 mi WNW 15.0 mph - N/A   Mostly Cloudy
1:00 PM 64.4 °F - 42.8 °F 45% 30.15 in 15.0 mi WNW 12.7 mph 19.6 mph N/A   Mostly Cloudy
2:00 PM 68.0 °F - 41.0 °F 37% 30.14 in 15.0 mi WNW 13.8 mph 21.9 mph N/A   Mostly Cloudy
3:00 PM 69.8 °F - 42.8 °F 38% 30.14 in 15.0 mi NW 10.4 mph 18.4 mph N/A   Mostly Cloudy
4:00 PM 68.0 °F - 37.4 °F 33% 30.14 in 15.0 mi NNW 10.4 mph - N/A   Mostly Cloudy
5:00 PM 69.8 °F - 39.2 °F 33% 30.15 in 15.0 mi WNW 4.6 mph - N/A   Mostly Cloudy
6:00 PM 70 °F - 41 °F 24% 30.14 in 15 mi WNW 9.2 mph - -   Scattered Clouds
6:00 PM 69.8 °F - 41.0 °F 35% 30.14 in 15.0 mi WNW 6.9 mph - N/A   Mostly Cloudy
7:00 PM 69.8 °F - 39.2 °F 33% 30.12 in 15.0 mi NW 11.5 mph - N/A   Mostly Cloudy
8:00 PM 68.0 °F - 37.4 °F 33% 30.13 in 15.0 mi WNW 5.8 mph - N/A   Mostly Cloudy
9:00 PM 64.4 °F - 37.4 °F 37% 30.15 in 15.0 mi WNW 5.8 mph - N/A   Mostly Cloudy
10:00 PM 59.0 °F - 46.4 °F 63% 30.17 in 15.0 mi SE 12.7 mph - N/A   Mostly Cloudy
11:00 PM 57.2 °F - 44.6 °F 63% 30.17 in 15.0 mi SSE 10.4 mph - N/A   Mostly Cloudy